Ciudad Obregon, Mexico

12:27 AM MST on February 24, 2017 (GMT -0700)
Ciudad Obregon International

Weather History for MMCN - November, 2012

Change the Weather History Date:

Tuesday, November 27, 2012

  Actual Average Record
Temperature  
Mean Temperature 72 °F -  
Max Temperature 85 °F 79 °F 87 °F (2003)
Min Temperature 58 °F 55 °F 45 °F (2014)
Cooling Degree Days 6    
Growing Degree Days 22 (Base 50)    
Moisture  
Dew Point 54 °F    
Average Humidity 59    
Maximum Humidity 92    
Minimum Humidity 24    
Precipitation  
Precipitation 0.00 in - - ()
Sea Level Pressure  
Sea Level Pressure 30.02 in    
Wind  
Wind Speed 4 mph ()    
Max Wind Speed 16 mph    
Max Gust Speed -    
Visibility 10.0 miles    
Events      
Averages and records for this station are not official NWS values.
T = Trace of Precipitation, MM = Missing Value Source: Averaged Metar Reports

Daily Weather History Graph

Daily Weather History Graph

Search for Another Location

Airport or City:

Trip Planner

Search our weather history database for the weather conditions in past years. The results will help you decide how hot, cold, wet, or windy it might be!

Date:

Astronomy

Nov. 27, 2012 Rise Set
Actual Time 6:49 AM MST 5:24 PM MST
Civil Twilight 6:24 AM MST 5:49 PM MST
Nautical Twilight 5:55 AM MST 6:18 PM MST
Astronomical Twilight 5:27 AM MST 6:46 PM MST
Moon 4:57 PM MST (11/27) 5:59 AM MST (11/27)
Length of Visible Light 11h 25m
Length of Day
10h 35m
Waxing Gibbous, 99% of the Moon is Illuminated
Nov 27
Waxing Gibbous
Nov 28
Full
Dec 6
Last Quarter
Dec 13
New
Dec 19
First Quarter

Hourly Weather History & Observations

Time (MST) Temp. Heat Index Dew Point Humidity Pressure Visibility Wind Dir Wind Speed Gust Speed Precip Events Conditions
4:40 AM 57.2 °F - 53.6 °F 88% 29.99 in 8.0 mi Calm Calm - N/A   Mostly Cloudy
4:50 AM 60 °F - 58 °F 92% 30.01 in 3 mi North 4.5 mph - -  
5:43 AM 55.4 °F - 51.8 °F 88% 30.01 in 10.0 mi South 4.6 mph - N/A   Scattered Clouds
6:41 AM 53.6 °F - 50.0 °F 88% 30.02 in 10.0 mi Calm Calm - N/A   Overcast
7:41 AM 57.2 °F - 53.6 °F 88% 30.05 in 10.0 mi NW 2.3 mph - N/A   Mostly Cloudy
7:50 AM 59 °F - 57 °F 92% 30.08 in 12 mi WNW 4.5 mph - -   Partly Cloudy
8:40 AM 64.4 °F - 55.4 °F 73% 30.06 in 10.0 mi North 4.6 mph - N/A   Mostly Cloudy
9:43 AM 69.8 °F - 57.2 °F 64% 30.08 in 10.0 mi WSW 5.8 mph - N/A   Mostly Cloudy
10:43 AM 73.4 °F - 57.2 °F 57% 30.06 in 10.0 mi NNW 3.5 mph - N/A   Mostly Cloudy
10:50 AM 72 °F - 62 °F 64% 30.09 in 12 mi North 6.7 mph - -   Partly Cloudy
11:44 AM 77.0 °F - 55.4 °F 47% 30.04 in 10.0 mi West 3.5 mph - N/A   Scattered Clouds
12:40 PM 80.6 °F 80.3 °F 53.6 °F 39% 30.01 in 10.0 mi West 6.9 mph - N/A   Scattered Clouds
1:40 PM 80.6 °F - 48.2 °F 32% 29.98 in 10.0 mi WNW 3.5 mph - N/A   Partly Cloudy
1:50 PM 85 °F - 54 °F 24% 30.01 in 12 mi West 8.9 mph - -   Clear
2:40 PM 84.2 °F - 46.4 °F 27% 29.97 in 10.0 mi WSW 6.9 mph - N/A   Clear
3:43 PM 82.4 °F - 46.4 °F 28% 29.95 in 10.0 mi West 3.5 mph - N/A   Clear
4:42 PM 80.6 °F - 51.8 °F 37% 29.97 in 10.0 mi WNW 6.9 mph - N/A   Clear
4:50 PM 80 °F - 58 °F 36% 30.00 in 12 mi WSW 15.7 mph - -  
5:41 PM 73.4 °F - 55.4 °F 53% 29.97 in 10.0 mi West 6.9 mph - N/A   Partly Cloudy
6:44 PM 69.8 °F - 57.2 °F 64% 29.99 in 10.0 mi West 4.6 mph - N/A   Partly Cloudy
7:41 PM 66.2 °F - 55.4 °F 68% 29.99 in 10.0 mi NW 2.3 mph - N/A   Clear